Regional Weather Roundup
Issued by NWS

Home | Current Version | Previous Version | Graphics & Text | Print | Product List | Glossary On
Versions: 1 2 3 4 5 6 7 8 9 10 11 12 13 14 15 16 17 18 19 20 21 22 23 24 25 26 27
000
ASUS45 KBOU 241307
RWRCO

WEATHER ROUNDUP FOR COLORADO
NATIONAL WEATHER SERVICE DENVER/BOULDER CO
700 AM MDT FRI OCT 24 2014

NOTE: "FAIR" INDICATES FEW OR NO CLOUDS BELOW 12000 FEET WITH NO
SIGNIFICANT WEATHER AND/OR OBSTRUCTIONS TO VISIBILITY.

COZ001>005-013-030-031-241400-
...NORTHWEST COLORADO...

CITY           SKY/WX    TMP DP  RH WIND       PRES   REMARKS
CRAIG          PTCLDY    31  27  85 CALM      30.30R
HAYDEN         PTCLDY    36  28  75 SE10      30.30S
MEEKER         CLEAR     34  30  85 E6        30.31S WCI  29
MOUNT WERNER   NOT AVBL
STEAMBOAT SPGS PTCLDY    32  29  88 CALM      30.32S
WALDEN         MOCLDY    46  25  42 S10       30.33S
$$

COZ006>008-011-241400-
...WEST CENTRAL VALLEYS...

CITY           SKY/WX    TMP DP  RH WIND       PRES   REMARKS
GRAND JUNCTION CLEAR     42  34  73 VRB3      30.26R
MONTROSE       CLEAR     41  29  62 S9        30.34R
EAGLE          PTCLDY    32  30  93 CALM      30.40
RIFLE          CLEAR     36  32  85 CALM      30.33R
DELTA          CLEAR     39  33  79 NE5       30.32R
NUCLA          CLEAR     41  28  60 E6        30.37R
$$

COZ017>023-064>068-241400-
...SOUTHWEST COLORADO...

CITY           SKY/WX    TMP DP  RH WIND       PRES   REMARKS
DURANGO        PTCLDY    37  32  82 N3        30.37R
CORTEZ         CLEAR     32  27  81 E3        30.34R
PAGOSA SPRINGS PTCLDY    36  35  96 CALM      30.41R
TELLURIDE      CLEAR     40  20  43 SE8       30.50R
WOLF CREEK PAS PTCLDY    39   7  26 S5          N/A
$$

COZ009-010-012-014-032>034-037-058>063-241400-
...CENTRAL COLORADO...

CITY           SKY/WX    TMP DP  RH WIND       PRES   REMARKS
ASPEN          PTCLDY    34  24  67 S7        30.39R WCI  28
BUENA VISTA    PTCLDY    34  24  67 W7        30.40S WCI  28
COPPER MTN     PTCLDY    43   9  24 SW14      30.59S
BERTHOUD PASS  FAIR      34  32  93 W21G30    30.57R WCI  22
COTTONWOOD PAS PTCLDY    48  10  21 N6        30.47S
GUNNISON       CLEAR     25  19  80 CALM      30.50R
KREMMLING      PTCLDY    30  28  93 CALM        N/A
LEADVILLE      PTCLDY    26  19  74 CALM      30.48R
MONARCH PASS   PTCLDY    34  21  60 W28       30.68R WCI  20
SALIDA         PTCLDY    44  26  49 NW15      30.45R
SUNLIGHT       CLEAR     37  27  65 CALM      30.53S
WILKERSON PASS NOT AVBL
$$

COZ069>075-241400-
...SAN LUIS VALLEY/SANGRE DE CRISTO MOUNTAINS...

CITY           SKY/WX    TMP DP  RH WIND       PRES   REMARKS
ALAMOSA        MOCLDY    29  25  85 CALM      30.41R
LA VETA PASS   PTCLDY    41  28  60 S12G23    30.46R
SAGUACHE       PTCLDY    36  27  69 N13       30.42S
$$

COZ035-036-038>040-241400-
...NORTHERN COLORADO FRONT RANGE...

CITY           SKY/WX    TMP DP  RH WIND       PRES   REMARKS
DENVER INTL AP CLOUDY    58  25  28 SW10      30.16R
DMNS CITY PARK   N/A     54  33  43 S3        30.15S
AURORA         MOCLDY    55  26  32 S9        30.18S
FRONT RANGE AP CLOUDY    54  32  43 S9        30.17R
ERIE MUNI ARPT CLOUDY    68  20  16 W10G18    30.13S
BOULDER MUN AP CLOUDY    61  28  29 SW6       30.15R
CENTENNIAL     CLOUDY    58  24  27 SE7       30.18S
BROOMFIELD     MOCLDY    59  25  27 CALM      30.18R
FORT COLLINS   CLOUDY    46  34  61 NE5       30.15R
LONGMONT       CLOUDY    47  38  71 E3        30.16R
$$

COZ041-046-047-076>085-087-088-241400-
...PIKES PEAK/PALMER DIVIDE AND SOUTHERN FOOTHILLS...

CITY           SKY/WX    TMP DP  RH WIND       PRES   REMARKS
COLO. SPRINGS  CLOUDY    49  27  42 N9        30.22S
A. F. ACADEMY  CLOUDY    51  23  33 E2        30.23F
ELLICOTT       NOT AVBL
FALCON         CLOUDY    47  23  38 NW9       30.26S
FORT CARSON    CLOUDY    48  31  50 NW10      30.19R
LIMON          MOCLDY    47  30  51 N5        30.17R
MONUMENT HILL  CLOUDY    50  19  29 SW9       30.26R
TRINIDAD       CLEAR     49  31  49 W14       30.21S
$$

COZ042>045-048>051-090-091-241400-
...NORTHEAST COLORADO...

CITY           SKY/WX    TMP DP  RH WIND       PRES   REMARKS
GREELEY ARPT   CLOUDY    45  34  65 CALM      30.13S
AKRON          MOCLDY    54  32  43 W13       30.10R
BURLINGTON     CLEAR     47  38  71 W10       30.09S
WRAY           MOCLDY    47  37  68 W6        30.05S
STERLING       MOCLDY    46  41  81 S6        30.07S
HOLYOKE        NOT AVBL
FORT MORGAN    MOCLDY    47  36  63 W9        30.11S
$$

COZ086-089-092>099-241400-
...SOUTHEAST COLORADO...

CITY           SKY/WX    TMP DP  RH WIND       PRES   REMARKS
PUEBLO         MOCLDY    40  33  76 CALM      30.15R
LA JUNTA       CLEAR     46  35  65 SW5       30.13R
LAMAR          CLEAR     40  37  89 W8        30.09S
SPRINGFIELD      N/A     50  40  68 W5        30.12S
$$



USA.gov is the U.S. government's official web portal to all federal, state and local government web resources and services.